Location: Kirkland Lake
(48.1510°N, 80.0330°W)
Time: 22:20:14
(UTC-04:00)

BlueWalker 3 - Visible Passes

Search period start: 07 June 2026 00:00
Search period end: 17 June 2026 00:00
Orbit: 447 x 456 km, 53.2° (Epoch: 7 June)

Date Brightness Start Highest point End Pass type
(mag) Time Alt. Az. Time Alt. Az. Time Alt. Az.
7 Jun 2.6 22:27:50 10° WNW 22:31:08 37° SW 22:33:47 14° SSE visible
9 Jun 4.2 22:52:44 10° WSW 22:53:47 11° SW 22:54:52 10° SSW visible
10 Jun 4.1 22:14:47 10° W 22:16:50 15° SW 22:18:52 10° SSW visible
